{"data":{"norad_id":66986,"epoch":"2026-05-25T04:05:18.544128Z","epoch_age_seconds":63635,"freshness":"FRESH","line1":"1 66986U 25288AD  26145.17035352  .00013988  00000+0  51675-3 0  9999","line2":"2 66986  42.9994 311.5680 0001488 272.0502  88.0179 15.27588635 26985","mean_motion":15.27588635,"eccentricity":0.0001488,"inclination_deg":42.9994,"raan_deg":311.568,"arg_perigee_deg":272.0502,"mean_anomaly_deg":88.0179,"bstar":0.00051675,"rev_number":2698,"period_min":94.266215852018,"perigee_km":482.00229922133,"apogee_km":484.04418050872,"semimajor_km":6861.160239865,"source":"CELESTRAK","updated_at":"2026-05-25T13:38:21.428700Z"}}